Aeroporto :
LOGIN :

Iscrizione | Disclaimer

   EN    FR    IT 

 










Sommario :    VFR   VFR Marginale   IFR   IFR Intensivo   IFR Molto Intensivo
Visibilità : 
Base nubi : 
>= 8 km
>= 3000ft
5 / 8 km
1000 / 3000 ft
1500m / 5 km
500 / 1000 ft
800 / 1500m
200 / 500 ft
< 800m
< 200 ft
Simboli :   Temporali  Nebbia  Neve Forte  Precipitazioni Forti  Vento > 20 kt
SIGMETs :   Varie  Temporali  Ghiacco  Turbolenza  Onda orograficha  Ceneri Vulcaniche






- Altitudine del aeroporto : 2026 ft
- Codice IATA : TOJ


LETO - Madrid Torrejon

ULTIMO METAR :
  • 090700Z 02006KT 350V060 9999 FEW065 24/12 Q1018 NOSIG

METARs OBSOLETI :
  • 090600Z 01008KT 9999 FEW065 21/10 Q1018 NOSIG
  • 090500Z 03007KT 9999 FEW065 20/10 Q1017 NOSIG

TAF TAF LETO
Valido dal 09 a 06 ore il 10 a 06 ore UTC


090500Z 0906/1006 02006KT 9999 FEW045 TX35/0916Z TN19/0906Z
TEMPO 0907/0922 FEW045TCU
PROB40
TEMPO 0911/0921 16010KT SHRA FEW045CB
PROB40
TEMPO 0915/0920 VRB15G30KT TSRA FEW045CB
PROB30
TEMPO 0915/0920 VRB15G35KT 4500 TSGR FEW045CB



MetMap, La meteo Aeronautica in un colpo d'occhio ! - Copyright ORBIFLY Dicembre 2007 - Disclaimer

ORBIFLY MET'MAP TEAM :

Programmazione e sviluppo : Alexandra Zaïnal
Concezione : Baudouin d'Aumeries
Aiuto per la programmazione : Marc-Olivier Méhu
Supporto tecnico e logistico : Manuel Goepfert
Aiuto per la traduzione : Arnaldo La Scala

Contatto : metmap@orbifly.com




FONTI E CREDITI :

   NOAA